Crosby, ND

3:55 PM CST on November 14, 2019 (GMT -0600)
Crosby

Weather History for KD50 - September, 2019

Change the Weather History Date:

Sunday, September 29, 2019

  Actual Average (WUND) Record (WUND)
Temperature  
Mean Temperature 36 °F -  
Max Temperature 39 °F - - (-1)
Min Temperature 33 °F - - (-1)
Degree Days  
Heating Degree Days 29    
Moisture  
Dew Point 37 °F    
Average Humidity 100    
Maximum Humidity 100    
Minimum Humidity 100    
Precipitation  
Precipitation 0.00 in - - ()
Sea Level Pressure  
Sea Level Pressure 30.02 in    
Wind  
Wind Speed 20 mph (ENE)    
Max Wind Speed 29 mph    
Max Gust Speed 40 mph    
Visibility 4 miles    
Events Rain , Snow    
Averages and records for this station are not official NWS values.
T = Trace of Precipitation, MM = Missing Value Source: NWS Daily Summary

Daily Weather History Graph

Daily Weather History Graph

Search for Another Location

Airport or City:

Astronomy

Sep. 29, 2019 Rise Set
Actual Time 7:49 AM CDT 7:36 PM CDT
Civil Twilight 7:18 AM CDT 8:07 PM CDT
Nautical Twilight 6:41 AM CDT 8:44 PM CDT
Astronomical Twilight 6:03 AM CDT 9:22 PM CDT
Moon 8:43 AM CDT (9/29) 8:34 PM CDT (9/29)
Length of Visible Light 12h 49m
Length of Day
11h 46m
New Moon, 1% of the Moon is Illuminated
Sep 29
New Moon
Oct 5
First Quarter
Oct 13
Full
Oct 21
Last Quarter
Oct 27
New

Hourly Weather History & Observations

Time (CDT) Temp. Windchill Dew Point Humidity Pressure Visibility Wind Dir Wind Speed Gust Speed Precip Events Conditions
12:15 AM 39.2 °F 29.8 °F 39.2 °F 100% 30.19 in 5.0 mi ENE 18.4 mph - N/A Rain Light Rain
12:35 AM 39.2 °F 30.5 °F 39.2 °F 100% 30.20 in 5.0 mi East 16.1 mph - N/A Rain Light Rain
12:55 AM 39.2 °F 31.2 °F 39.2 °F 100% 30.22 in 4.0 mi East 13.8 mph 20.7 mph N/A Rain Light Rain
1:15 AM 39.2 °F 30.8 °F 39.2 °F 100% 30.21 in 3.0 mi East 15.0 mph 20.7 mph N/A Rain Light Rain
1:35 AM 39.2 °F 29.6 °F 39.2 °F 100% 30.19 in 3.0 mi East 19.6 mph 26.5 mph N/A Rain Light Rain
1:55 AM 39.2 °F 29.0 °F 39.2 °F 100% 30.17 in 4.0 mi East 21.9 mph 28.8 mph N/A Rain Light Rain
2:15 AM 39.2 °F 29.6 °F 39.2 °F 100% 30.17 in 5.0 mi East 19.6 mph 26.5 mph N/A Rain Light Rain
2:35 AM 39.2 °F 29.6 °F 39.2 °F 100% 30.16 in 6.0 mi East 19.6 mph 26.5 mph N/A Rain Light Rain
2:55 AM 39.2 °F 29.3 °F 39.2 °F 100% 30.15 in 8.0 mi East 20.7 mph 29.9 mph N/A   Overcast
3:15 AM 39.2 °F 29.0 °F 39.2 °F 100% 30.14 in 8.0 mi East 21.9 mph 34.5 mph N/A   Overcast
3:35 AM 39.2 °F 29.0 °F 39.2 °F 100% 30.13 in 8.0 mi East 21.9 mph 32.2 mph N/A   Overcast
3:55 AM 39.2 °F 28.3 °F 39.2 °F 100% 30.12 in 5.0 mi East 25.3 mph 32.2 mph N/A   Overcast
4:15 AM 37.4 °F 26.9 °F 37.4 °F 100% 30.12 in 4.0 mi East 20.7 mph 31.1 mph N/A   Overcast
4:35 AM 37.4 °F 25.9 °F 37.4 °F 100% 30.11 in 4.0 mi East 25.3 mph 31.1 mph N/A Rain Light Rain
4:55 AM 37.4 °F 25.6 °F 37.4 °F 100% 30.10 in 4.0 mi East 26.5 mph 33.4 mph N/A Rain Light Rain
5:15 AM 35.6 °F 24.0 °F 35.6 °F 100% 30.10 in 4.0 mi East 23.0 mph 33.4 mph N/A   Overcast
5:35 AM 35.6 °F 24.8 °F 35.6 °F 100% 30.09 in 6.0 mi ENE 19.6 mph 28.8 mph N/A   Overcast
5:55 AM 35.6 °F 25.2 °F 35.6 °F 100% 30.08 in 6.0 mi East 18.4 mph 31.1 mph N/A   Overcast
6:15 AM 33.8 °F 22.5 °F 33.8 °F 100% 30.08 in 5.0 mi ENE 19.6 mph 25.3 mph N/A Rain Light Rain
6:35 AM 33.8 °F 23.2 °F 33.8 °F 100% 30.08 in 4.0 mi ENE 17.3 mph 26.5 mph N/A Snow Light Snow
6:55 AM 33.8 °F 22.8 °F 33.8 °F 100% 30.09 in 3.0 mi East 18.4 mph 24.2 mph N/A Rain Light Rain
7:15 AM 33.8 °F 22.8 °F 33.8 °F 100% 30.08 in 3.0 mi ENE 18.4 mph 25.3 mph N/A Snow Light Snow
7:35 AM 33.8 °F 22.8 °F 33.8 °F 100% 30.08 in 4.0 mi East 18.4 mph 28.8 mph N/A Snow Light Snow
7:55 AM 33.8 °F 22.2 °F 33.8 °F 100% 30.08 in 5.0 mi ENE 20.7 mph 27.6 mph N/A Snow Light Snow
8:15 AM 33.8 °F 22.2 °F 33.8 °F 100% 30.08 in 9.0 mi East 20.7 mph 26.5 mph N/A   Overcast
8:35 AM 33.8 °F 22.2 °F 33.8 °F 100% 30.07 in 1.5 mi ENE 20.7 mph - N/A Snow Light Snow
8:55 AM 33.8 °F 22.8 °F 33.8 °F 100% 30.08 in 5.0 mi ENE 18.4 mph 26.5 mph N/A Snow Light Snow
9:35 AM 33.8 °F 22.2 °F 33.8 °F 100% 30.06 in 2.0 mi ENE 20.7 mph 27.6 mph N/A   Overcast
9:55 AM 33.8 °F - 33.8 °F 100% 30.06 in 1.0 mi North - - N/A   Overcast
10:15 AM 33.8 °F 22.8 °F 33.8 °F 100% 30.06 in 1.0 mi ENE 18.4 mph 28.8 mph N/A   Overcast
10:35 AM 33.8 °F 23.2 °F 33.8 °F 100% 30.07 in 1.2 mi ENE 17.3 mph 23.0 mph N/A Rain Light Rain
10:55 AM - - - N/A% 30.07 in 1.0 mi ENE 17.3 mph 24.2 mph N/A   Overcast
11:15 AM 35.6 °F 24.0 °F 35.6 °F 100% 30.04 in 0.8 mi ENE 23.0 mph - N/A   Overcast
11:35 AM 35.6 °F 23.7 °F 35.6 °F 100% 30.02 in 1.0 mi ENE 24.2 mph 35.7 mph N/A   Overcast
11:55 AM 35.6 °F 24.5 °F 35.6 °F 100% 30.01 in 1.2 mi ENE 20.7 mph 34.5 mph N/A Rain Light Rain
12:15 PM 35.6 °F 23.2 °F 35.6 °F 100% 30.01 in 1.2 mi ENE 26.5 mph - N/A   Overcast
12:35 PM 35.6 °F 23.2 °F 35.6 °F 100% 30.00 in 1.0 mi ENE 26.5 mph 33.4 mph N/A Rain Light Rain
12:55 PM 35.6 °F 23.2 °F 35.6 °F 100% 30.00 in 1.2 mi ENE 26.5 mph 33.4 mph N/A   Overcast
1:15 PM 35.6 °F 23.7 °F 35.6 °F 100% 29.99 in 1.2 mi ENE 24.2 mph 34.5 mph N/A   Overcast
1:35 PM 35.6 °F 24.2 °F 35.6 °F 100% 29.98 in 1.2 mi ENE 21.9 mph 31.1 mph N/A Rain Light Rain
1:55 PM - - - N/A% 29.96 in 1.0 mi East 28.8 mph 35.7 mph N/A Rain Light Rain
2:15 PM 37.4 °F 25.9 °F 37.4 °F 100% 29.95 in 1.5 mi East 25.3 mph 35.7 mph N/A   Overcast
2:35 PM 37.4 °F 26.1 °F 37.4 °F 100% 29.95 in 2.0 mi East 24.2 mph 33.4 mph N/A   Overcast
2:55 PM 37.4 °F 25.4 °F 37.4 °F 100% 29.93 in 1.2 mi ENE 27.6 mph 39.1 mph N/A Rain Light Rain
3:35 PM 37.4 °F 26.4 °F 37.4 °F 100% 29.94 in 2.0 mi East 23.0 mph 35.7 mph N/A Rain Light Rain
3:55 PM 37.4 °F 25.4 °F 37.4 °F 100% 29.93 in 2.5 mi East 27.6 mph 39.1 mph N/A   Overcast
4:15 PM 37.4 °F 25.4 °F 37.4 °F 100% 29.92 in 2.0 mi ENE 27.6 mph 38.0 mph N/A   Overcast
4:35 PM 37.4 °F 26.4 °F 37.4 °F 100% 29.92 in 5.0 mi East 23.0 mph 40.3 mph N/A   Overcast
4:55 PM 37.4 °F 27.5 °F 37.4 °F 100% 29.92 in 6.0 mi East 18.4 mph 34.5 mph N/A   Overcast
5:15 PM 37.4 °F 26.6 °F 37.4 °F 100% 29.93 in 7.0 mi East 21.9 mph 29.9 mph N/A   Overcast
5:35 PM 37.4 °F 26.4 °F 37.4 °F 100% 29.91 in 7.0 mi ENE 23.0 mph 33.4 mph N/A   Overcast
5:55 PM 37.4 °F 25.6 °F 37.4 °F 100% 29.89 in 5.0 mi ENE 26.5 mph 35.7 mph N/A   Overcast
6:15 PM 37.4 °F 26.6 °F 37.4 °F 100% 29.90 in 5.0 mi ENE 21.9 mph 32.2 mph N/A   Overcast
6:35 PM - - - N/A% 29.92 in 5.0 mi East 21.9 mph 29.9 mph N/A   Overcast
6:55 PM 39.2 °F 29.0 °F 39.2 °F 100% 29.93 in 9.0 mi East 21.9 mph 33.4 mph N/A   Overcast
7:15 PM 39.2 °F 28.7 °F 39.2 °F 100% 29.92 in 2.5 mi East 23.0 mph 29.9 mph N/A Rain Light Rain
7:35 PM 39.2 °F 28.3 °F 39.2 °F 100% 29.91 in 2.5 mi East 25.3 mph 32.2 mph N/A Rain Light Rain
7:55 PM - - - N/A% 29.90 in 4.0 mi ENE 21.9 mph 27.6 mph N/A   Overcast
8:15 PM 37.4 °F 26.9 °F 37.4 °F 100% 29.91 in 3.0 mi ENE 20.7 mph 28.8 mph N/A Rain Light Rain
8:35 PM 37.4 °F 26.9 °F 37.4 °F 100% 29.92 in 3.0 mi East 20.7 mph 28.8 mph N/A   Overcast
8:55 PM 37.4 °F 26.6 °F 37.4 °F 100% 29.92 in 1.8 mi East 21.9 mph 32.2 mph N/A   Overcast
9:15 PM 37.4 °F 28.9 °F 37.4 °F 100% 29.95 in 1.5 mi East 13.8 mph - N/A   Overcast
9:35 PM 37.4 °F 28.5 °F 37.4 °F 100% 29.95 in 1.5 mi East 15.0 mph 24.2 mph N/A   Overcast
9:55 PM 37.4 °F 27.5 °F 37.4 °F 100% 29.93 in 1.2 mi East 18.4 mph - N/A   Overcast
10:15 PM 37.4 °F 28.2 °F 37.4 °F 100% 29.93 in 1.5 mi East 16.1 mph - N/A   Overcast
10:35 PM 37.4 °F 28.9 °F 37.4 °F 100% 29.92 in 1.8 mi ENE 13.8 mph 21.9 mph N/A   Overcast
10:55 PM 37.4 °F 29.3 °F 37.4 °F 100% 29.93 in 2.5 mi ENE 12.7 mph 19.6 mph N/A   Overcast
11:15 PM 37.4 °F 29.3 °F 37.4 °F 100% 29.93 in 2.0 mi ENE 12.7 mph 21.9 mph N/A   Overcast
11:35 PM 37.4 °F 28.9 °F 37.4 °F 100% 29.94 in 2.0 mi ENE 13.8 mph 20.7 mph N/A   Overcast
11:55 PM 37.4 °F 28.2 °F 37.4 °F 100% 29.93 in 3.0 mi ENE 16.1 mph - N/A   Overcast